SCP
0 0 0 0 0 0 0 0 0 0 0 0 0 0 0 0 0 0 0 0 0 0 0 0 -0 -0 -0 -0 0 0 0 0 -0 -0 0 0 0 0 0 -0 0 -0 0 -0 -0 -0 0
0 0 0 0 0 0 0 0 0 0 0 0 0 0 0 0 0 0 0 0 0 0 0 -0 -0 -0 -0 -0 0 0 0 -0 -0 -0 -0 0 -0 0 -0 0 0 0 -0 -0 -0 -0 -0
0 0 0 0 0 0 0 0 0 0 0 0 -0 -0 -0 0 0 0 0 0 0 0 0 -0 -0 -0 -0 0 0 0 0 -0 -0 -0 -0 0 0 0 0 -0 0 0 -0 -0 -0 -0 -0
0 0 0 0 0 0 0 0 0 0 0 0 0 -0 -0 -0 0 0 0 0 0 0 0 -0 -0 -0 0 0 0 0 0 0 -0 -0 0 0 0 0 -0 0 -0 0 0 -0 -0 -0 -0
0 0 0 0 0 0 0 0 0 0 0 0 0 -0 -0 -0 -0 -0 0 0 0 -0 -0 -0 -0 -0 0 0 0 0 0 0 0 -0 0 0 0 -0 -0 -0 -0 0 -0 0 0 -0 -0
0 0 0 0 0 0 0 0 0 0 0 0 0 -0 -0 -0 -0 -0 -0 0 0 -0 -0 -0 -0 -0 -0 -0 0 0 0 -0 0 -0 0 -0 -0 -0 -0 -0 -0 -0 0 -0 0 -0 0
0 0 0 0 0 0 0 0 0 0 0 0 0 -0 -0 -0 -0 -0 0 0 0 -0 -0 0 0 0 0 0 0 0 0 0 -0 0 0 -0 -0 -0 0 0 -0 0 -0 -0 0 -0 -0
0 0 0 0 0 0 0 0 0 0 0 0 0 -0 -0 -0 -0 -0 0 0 0 0 0 0 0 0 0 0 0 0 0 0 0 0 -0 0 -0 -0 -0 0 0 -0 -0 -0 0 0 0
0 0 0 0 0 0 0 0 0 0 0 0 0 0 -0 -0 -0 0 0 0 -0 -0 -0 0 0 0 0 0 -0 0 0 -0 0 0 0 0 -0 0 0 0 0 -0 -0 0 0 -0 0
0 0 0 0 0 0 0 0 0 0 0 0 0 0 -0 -0 0 0 0 0 -0 -0 -0 0 -0 0 0 0 0 0 0 0 0 0 0 0 0 0 0 -0 0 0 -0 -0 -0 -0 -0
0 0 0 0 0 0 0 0 0 0 0 0 0 0 0 0 0 0 0 0 0 -0 -0 0 0 0 0 -0 0 0 0 -0 0 0 0 0 0 0 -0 0 0 0 0 -0 -0 -0 0
0 0 0 0 0 0 0 0 0 0 0 0 0 0 0 0 0 0 0 0 0 0 0 0 0 -0 0 -0 0 0 0 0 0 0 0 -0 0 0 -0 0 0 0 0 -0 -0 -0 -0
0 0 0 0 0 0 0 0 0 0 0 0 0 0 0 0 0 0 0 0 0 0 0 0 0 0 -0 0 0 0 0 0 0 0 0 0 0 0 0 0 0 -0 0 -0 0 -0 0
0 0 0 0 0 0 0 0 0 0 0 0 0 0 0 0 0 0 0 0 0 0 0 0 0 0 0 -0 0 0 0 0 0 0 -0 0 0 -0 0 0 0 0 0 -0 -0 0 -0
0 0 0 0 0 0 0 0 0 0 0 0 0 0 0 0 0 0 0 0 -0 0 0 0 0 0 -0 0 0 0 0 0 0 0 0 0 0 0 0 -0 -0 -0 -0 -0 0 0 0
0 0 0 0 0 0 0 0 0 0 0 0 0 0 0 0 0 0 0 -0 0 0 0 0 0 0 0 0 0 0 0 0 0 0 0 0 0 0 0 0 0 0 0 0 0 0 -0
0 0 0 0 0 0 0 0 0 0 0 0 0 0 0 0 0 0 0 0 0 0 0 0 0 0 0 -0 0 0 0 0 0 0 0 0 0 0 0 0 0 0 0 0 0 0 0
0 0 0 0 0 0 0 0 0 0 0 0 0 0 0 0 0 0 0 0 0 0 0 0 0 0 0 0 0 0 0 0 0 0 0 0 0 0 0 0 0 0 0 0 0 0 0
0 0 0 0 0 0 0 0 0 0 0 0 0 0 0 0 0 0 0 0 0 0 0 0 0 0 0 0 0 0 0 0 0 0 0 0 0 0 0 0 0 0 0 0 0 0 0
0 0 0 0 0 0 0 0 0 0 0 0 0 0 0 0 0 0 0 0 0 0 0 0 0 0 0 0 0 0 0 0 0 0 0 0 0 0 0 0 0 0 0 0 0 0 -0
0 0 0 0 0 0 0 0 0 0 0 0 0 0 0 0 0 0 0 0 0 0 0 0 0 0 0 0 0 0 0 0 0 0 0 0 0 0 0 0 0 0 0 0 0 -0 -0
0 0 0 0 0 0 0 0 0 0 0 0 0 0 0 0 0 0 0 0 0 0 0 0 0 0 0 0 0 0 0 0 0 0 0 0 0 0 0 0 0 0 -0 0 0 0 0
0 0 0 0 0 0 0 0 0 0 0 0 0 0 0 0 0 0 0 0 0 0 0 0 0 0 0 0 0 0 0 0 0 0 0 0 0 0 0 0 0 0 0 0 0 0 0
0 0 0 0 0 0 0 0 0 0 0 0 0 0 0 0 0 0 0 0 0 0 0 0 0 0 0 0 0 0 -0 0 0 0 0 0 0 0 0 0 0 0 0 0 0 0 0
0 0 0 0 0 0 0 0 0 0 0 0 0 0 0 0 0 0 0 0 0 0 0 0 0 0 0 0 0 0 0 0 0 0 0 0 0 0 0 0 0 0 0 0 0 0 0
0 0 0 0 0 0 0 0 0 0 0 0 0 0 0 0 0 0 0 0 0 0 0 0 0 0 0 0 0 0 0 0 0 0 0 0 0 0 0 0 0 0 0 0 0 0 0
0 0 0 0 0 0 0 0 0 0 0 0 0 0 0 0 0 0 0 0 0 0 0 0 0 0 0 0 0 0 0 0 0 0 0 0 0 0 0 0 0 -0 0 0 0 0 0
0 0 0 0 0 0 0 0 0 0 0 0 0 0 0 0 0 0 0 0 0 0 0 0 0 0 0 0 0 0 0 0 0 0 0 0 0 0 0 0 0 0 0 0 0 0 0
0 0 0 0 0 0 0 0 0 0 0 0 0 0 0 0 0 0 0 0 0 0 0 0 0 0 0 1 0 0 0 0 0 0 0 0 0 0 0 0 0 0 0 0 0 0 0
Wind_Speed_500mb
4 6 7 9 10 12 15 18 21 24 28 30 34 36 38 39 41 43 43 42 40 35 28 27 22 13 4 13 8 8 16 15 22 19 24 25 29 36 29 35 23 29 16 12 15 14 8
3 6 8 9 11 12 15 18 22 25 29 32 35 37 39 40 41 43 43 42 37 31 25 19 15 11 8 24 5 8 15 20 21 22 21 24 24 36 33 20 31 5 17 15 18 17 13
4 6 8 11 14 16 18 21 22 26 29 32 36 39 41 42 43 44 44 40 33 28 18 12 10 10 17 6 11 13 20 23 23 22 19 19 17 16 15 19 9 16 20 15 15 15 14
3 6 9 12 15 17 20 23 26 28 31 34 36 39 41 43 45 45 42 34 30 19 15 10 9 5 11 10 13 16 21 25 25 22 14 14 17 26 26 17 23 26 32 24 22 18 14
4 5 7 10 14 17 21 24 27 30 32 35 38 40 42 45 47 44 35 29 24 16 13 8 8 4 15 15 15 20 24 29 28 22 16 11 18 31 28 22 27 28 24 35 25 27 18
7 7 8 10 13 17 21 24 27 30 33 36 39 42 43 46 47 39 31 24 18 15 10 9 12 13 17 21 23 20 26 29 31 25 20 22 23 22 25 27 29 37 38 21 23 25 22
11 11 12 13 16 18 21 24 28 30 33 36 39 43 44 45 45 31 23 23 17 5 13 30 22 18 6 10 17 23 33 30 35 29 29 37 27 29 39 37 37 21 32 44 26 30 26
16 15 16 18 20 23 25 26 28 31 33 36 39 43 46 44 33 25 23 17 13 17 27 29 30 33 20 10 23 31 37 35 34 31 35 27 34 34 35 32 23 31 35 24 22 20 27
22 21 21 23 25 28 30 32 32 33 35 37 39 43 46 42 20 28 16 10 20 27 19 28 26 36 34 28 33 42 43 42 32 32 34 30 36 36 20 21 21 31 29 24 26 23 25
26 26 26 26 28 30 32 33 35 36 37 38 39 41 45 45 12 30 12 16 25 21 13 19 21 21 31 34 31 27 42 40 16 31 32 32 34 22 26 32 33 30 31 24 30 28 27
31 30 31 31 29 29 30 31 33 36 39 39 41 40 41 44 41 19 22 28 29 13 12 12 16 13 29 43 24 35 37 48 34 28 28 32 35 30 36 42 41 31 28 23 32 28 19
34 32 31 29 28 29 31 32 34 36 38 41 42 40 43 29 33 28 31 31 18 15 16 3 6 20 30 41 19 34 34 41 32 33 35 42 32 30 37 37 36 11 21 21 18 24 23
35 33 30 29 29 29 30 30 32 35 38 40 42 41 42 39 25 31 27 18 15 19 11 9 3 12 33 33 28 23 31 32 30 22 28 34 24 27 29 32 20 28 25 15 17 24 19
35 33 32 31 31 31 30 31 33 36 40 42 39 39 40 37 28 25 17 18 25 20 11 6 11 18 26 35 31 33 27 30 40 36 26 31 32 45 28 30 26 36 32 23 25 26 26
37 35 33 32 33 33 34 35 37 38 41 44 40 28 30 26 22 15 22 21 29 19 18 10 28 29 30 34 23 27 35 32 32 35 27 27 31 40 38 36 36 35 32 32 17 9 14
39 35 34 34 36 38 39 39 38 37 36 38 41 32 33 24 21 16 20 32 33 3 10 12 27 11 26 32 33 29 32 35 40 43 35 24 25 45 26 40 26 22 26 12 14 17 24
41 41 40 39 40 38 43 36 35 32 28 30 25 15 15 13 7 23 22 28 27 13 8 12 14 14 22 32 33 32 33 19 37 41 38 24 20 22 30 29 31 19 17 18 6 14 4
42 44 47 44 44 43 43 35 29 26 21 15 20 17 14 11 22 29 25 34 12 19 18 11 7 18 20 22 31 30 28 24 26 45 42 33 11 19 34 42 31 31 28 27 15 25 15
46 47 49 51 51 45 37 30 23 20 15 15 19 28 12 16 14 22 27 22 15 23 16 7 15 16 10 15 14 26 21 12 6 28 22 30 15 22 28 11 14 23 23 15 22 5 22
53 53 52 50 48 37 30 26 20 20 11 7 14 9 27 28 37 22 23 24 28 21 22 15 17 15 21 14 16 15 17 6 11 25 6 3 22 29 15 28 27 30 34 26 17 16 22
57 56 52 48 43 34 29 28 24 21 11 6 15 7 10 9 26 25 24 21 23 18 21 14 17 32 15 23 24 14 20 13 13 9 10 12 24 24 36 30 29 43 37 34 32 30 24
52 52 50 45 41 37 27 31 28 22 13 9 15 10 7 25 10 13 14 25 21 9 8 17 21 18 19 17 28 23 24 25 11 12 21 13 16 31 34 34 26 21 38 39 33 24 12
45 47 46 43 43 43 44 40 33 26 15 11 8 16 13 8 21 19 23 25 14 4 17 19 7 7 18 12 2 9 11 19 20 17 18 18 22 25 32 26 27 28 23 39 25 18 20
39 40 40 42 44 46 47 45 38 30 26 13 12 12 19 21 16 18 4 6 17 15 16 8 12 18 6 18 13 20 13 20 6 5 9 17 24 20 26 22 31 5 18 11 22 17 7
38 36 35 37 43 45 45 48 45 38 31 24 13 12 19 19 17 6 14 18 15 22 20 19 11 5 13 15 11 15 22 32 7 6 1 9 15 15 13 5 11 11 4 9 11 12 10
40 38 34 32 36 42 43 49 47 40 40 28 15 13 14 22 9 10 8 15 19 12 9 20 5 9 6 9 17 25 17 34 11 8 5 4 12 8 14 12 3 15 20 14 9 12 7
40 37 34 30 30 35 42 47 50 43 39 29 14 20 10 24 26 7 14 17 4 14 18 7 13 10 10 13 23 21 23 25 15 14 31 9 8 15 5 15 20 23 23 13 8 6 6
40 41 36 30 27 27 40 42 44 43 45 31 17 22 14 26 22 8 12 14 10 8 16 28 14 10 16 16 23 12 9 15 20 22 29 26 19 16 11 13 9 1 13 11 11 9 5
37 39 38 33 29 25 33 36 39 34 48 33 20 15 15 20 22 15 22 22 16 10 14 15 3 5 15 10 4 9 18 7 9 9 2 5 9 6 12 7 12 11 19 15 9 5 7
Wind_Direction_500mb
12 5 5 4 2 355 346 344 343 342 340 339 337 338 338 334 330 328 327 324 322 319 317 317 316 323 257 232 64 187 192 181 177 181 194 196 204 212 220 201 193 245 158 187 158 177 240
5 3 1 359 356 354 350 346 343 342 340 339 338 338 338 334 329 326 325 323 323 319 315 314 313 309 247 249 134 207 180 187 178 182 196 205 206 216 246 197 209 127 168 169 181 174 201
345 353 355 357 356 353 351 348 347 345 343 342 341 341 338 334 329 325 324 324 325 319 313 311 319 301 259 290 167 171 177 189 183 192 212 215 252 216 236 197 211 182 192 187 187 178 145
329 346 348 349 350 349 347 347 346 347 345 344 343 341 339 335 330 327 325 324 322 314 311 296 330 294 269 183 186 189 189 193 199 205 236 196 213 234 239 172 203 203 227 198 165 164 156
287 318 333 341 343 344 344 344 345 344 344 343 342 341 341 337 333 331 328 325 319 304 309 283 341 233 236 198 194 200 193 195 191 201 216 228 220 223 206 202 202 219 211 229 146 197 166
271 292 310 323 331 335 339 340 342 343 343 341 340 340 341 339 337 338 336 330 316 303 298 282 249 247 224 221 182 183 183 195 190 200 209 220 214 220 220 211 204 205 233 232 175 179 236
260 278 295 309 318 325 328 331 334 336 339 340 340 338 340 342 343 347 359 340 321 232 248 276 308 261 169 187 183 180 181 185 195 203 215 206 219 214 206 211 241 236 209 225 200 166 211
257 269 282 294 303 310 315 320 323 326 330 333 335 335 338 344 343 357 9 14 30 333 298 273 252 240 230 214 194 182 177 196 201 209 215 191 228 221 237 203 235 273 208 205 124 169 241
258 268 278 288 295 300 302 304 307 314 318 323 327 331 337 345 354 1 333 334 336 328 268 284 220 226 214 210 226 183 188 207 201 224 211 235 211 233 244 211 208 232 237 172 171 195 230
258 266 276 284 290 294 297 299 300 301 304 312 317 324 335 340 335 330 313 318 326 318 272 159 195 213 191 194 225 213 196 211 233 233 236 227 249 195 210 215 211 212 233 212 208 184 211
259 266 274 280 285 288 293 298 302 301 298 299 305 314 323 336 329 333 306 315 317 297 279 101 125 134 185 200 135 197 198 216 232 211 229 224 236 197 208 205 204 252 178 236 213 198 198
260 264 269 274 279 286 291 297 302 305 303 296 293 304 309 332 320 304 309 306 310 235 243 87 151 185 182 211 184 157 188 215 240 268 233 249 211 202 215 212 206 169 184 204 212 219 235
255 259 263 268 275 283 290 297 303 307 309 305 291 290 296 302 295 302 310 298 241 241 80 236 177 210 200 197 181 177 185 199 225 218 232 228 212 217 237 186 172 204 179 193 207 220 232
249 252 258 264 272 279 285 292 301 309 310 308 301 288 288 291 284 291 298 244 254 278 280 30 285 289 253 209 206 175 198 199 223 237 201 214 205 205 201 202 185 198 196 230 187 211 225
245 249 254 261 267 273 278 287 297 306 309 309 309 301 276 271 258 268 256 230 229 217 283 324 288 251 214 241 220 188 191 201 227 239 260 228 224 193 194 216 194 212 225 246 302 260 268
244 252 258 266 273 276 272 279 289 301 305 311 316 306 265 233 252 228 238 246 269 116 326 268 286 333 292 205 210 218 192 199 198 227 236 292 276 173 196 212 239 274 207 225 244 276 248
243 250 256 260 267 274 285 282 286 293 300 310 318 269 181 198 221 221 235 231 236 171 252 262 288 299 321 294 202 223 230 188 197 207 227 259 273 208 174 211 204 208 215 229 311 288 312
246 250 254 257 261 269 273 285 285 284 298 330 286 250 183 189 227 228 238 232 348 271 205 265 307 283 284 314 305 228 208 234 197 208 208 224 278 225 196 214 231 223 220 197 245 218 274
250 251 254 260 268 265 262 261 274 274 299 319 261 263 229 209 240 232 223 252 237 240 211 242 258 237 315 303 315 274 221 89 158 234 204 220 239 231 176 200 223 265 210 230 210 197 206
251 250 251 254 261 250 239 242 250 264 278 311 275 244 208 217 252 294 284 218 228 218 255 231 251 270 269 270 279 269 252 155 213 225 207 351 237 249 224 217 200 221 238 236 195 232 244
246 246 247 249 245 236 225 231 240 254 247 299 238 252 1 187 224 222 254 284 223 210 204 199 238 245 246 243 279 280 277 141 211 201 232 222 235 250 256 265 272 199 213 210 216 222 255
236 239 240 236 232 222 217 222 232 238 226 255 293 300 309 273 298 254 232 245 251 221 240 216 232 221 206 243 253 299 347 356 159 185 207 216 236 234 243 250 267 202 223 208 211 232 266
231 231 231 226 226 220 215 216 229 230 206 257 257 271 273 259 223 242 233 223 239 288 246 273 294 292 260 237 268 296 321 291 298 295 207 202 229 218 224 223 242 247 227 207 234 239 229
223 228 227 221 219 220 218 216 218 216 206 229 317 286 269 257 237 236 330 235 245 237 296 312 261 250 21 318 269 248 286 297 268 313 294 221 224 218 230 199 223 163 351 240 235 197 204
217 222 225 222 216 218 216 214 216 219 211 217 252 273 280 270 281 235 235 244 261 246 233 254 277 292 309 269 213 193 238 280 215 54 60 253 218 224 233 219 140 120 146 175 203 186 173
216 220 220 222 216 213 212 212 215 220 207 216 238 235 258 282 273 357 292 256 269 239 210 227 196 303 276 252 231 207 176 240 241 291 120 45 287 272 224 269 294 348 29 7 102 187 97
209 215 216 215 216 211 208 208 212 212 199 206 226 222 252 263 265 303 270 328 9 294 279 139 356 266 228 232 234 225 227 205 191 179 282 196 326 291 231 274 86 169 253 289 227 41 4
211 212 211 211 212 216 204 206 209 204 195 205 217 219 228 274 265 280 285 309 311 300 308 11 269 204 244 235 239 219 229 222 210 195 233 263 240 257 265 253 227 358 184 273 73 82 37
208 207 205 205 208 208 201 197 193 184 192 201 211 219 231 249 281 296 263 254 255 294 315 305 345 40 357 285 234 120 269 138 241 171 136 219 357 16 360 73 87 43 71 92 85 77 68
Wind_Speed_850mb
4 6 7 9 10 12 15 18 21 24 28 30 34 36 38 39 41 43 43 42 40 35 28 27 22 13 4 13 8 8 16 15 22 19 24 25 29 36 29 35 23 29 16 12 15 14 8
3 6 8 9 11 12 15 18 22 25 29 32 35 37 39 40 41 43 43 42 37 31 25 19 15 11 8 24 5 8 15 20 21 22 21 24 24 36 33 20 31 5 17 15 18 17 13
4 6 8 11 14 16 18 21 22 26 29 32 36 39 41 42 43 44 44 40 33 28 18 12 10 10 17 6 11 13 20 23 23 22 19 19 17 16 15 19 9 16 20 15 15 15 14
3 6 9 12 15 17 20 23 26 28 31 34 36 39 41 43 45 45 42 34 30 19 15 10 9 5 11 10 13 16 21 25 25 22 14 14 17 26 26 17 23 26 32 24 22 18 14
4 5 7 10 14 17 21 24 27 30 32 35 38 40 42 45 47 44 35 29 24 16 13 8 8 4 15 15 15 20 24 29 28 22 16 11 18 31 28 22 27 28 24 35 25 27 18
7 7 8 10 13 17 21 24 27 30 33 36 39 42 43 46 47 39 31 24 18 15 10 9 12 13 17 21 23 20 26 29 31 25 20 22 23 22 25 27 29 37 38 21 23 25 22
11 11 12 13 16 18 21 24 28 30 33 36 39 43 44 45 45 31 23 23 17 5 13 30 22 18 6 10 17 23 33 30 35 29 29 37 27 29 39 37 37 21 32 44 26 30 26
16 15 16 18 20 23 25 26 28 31 33 36 39 43 46 44 33 25 23 17 13 17 27 29 30 33 20 10 23 31 37 35 34 31 35 27 34 34 35 32 23 31 35 24 22 20 27
22 21 21 23 25 28 30 32 32 33 35 37 39 43 46 42 20 28 16 10 20 27 19 28 26 36 34 28 33 42 43 42 32 32 34 30 36 36 20 21 21 31 29 24 26 23 25
26 26 26 26 28 30 32 33 35 36 37 38 39 41 45 45 12 30 12 16 25 21 13 19 21 21 31 34 31 27 42 40 16 31 32 32 34 22 26 32 33 30 31 24 30 28 27
31 30 31 31 29 29 30 31 33 36 39 39 41 40 41 44 41 19 22 28 29 13 12 12 16 13 29 43 24 35 37 48 34 28 28 32 35 30 36 42 41 31 28 23 32 28 19
34 32 31 29 28 29 31 32 34 36 38 41 42 40 43 29 33 28 31 31 18 15 16 3 6 20 30 41 19 34 34 41 32 33 35 42 32 30 37 37 36 11 21 21 18 24 23
35 33 30 29 29 29 30 30 32 35 38 40 42 41 42 39 25 31 27 18 15 19 11 9 3 12 33 33 28 23 31 32 30 22 28 34 24 27 29 32 20 28 25 15 17 24 19
35 33 32 31 31 31 30 31 33 36 40 42 39 39 40 37 28 25 17 18 25 20 11 6 11 18 26 35 31 33 27 30 40 36 26 31 32 45 28 30 26 36 32 23 25 26 26
37 35 33 32 33 33 34 35 37 38 41 44 40 28 30 26 22 15 22 21 29 19 18 10 28 29 30 34 23 27 35 32 32 35 27 27 31 40 38 36 36 35 32 32 17 9 14
39 35 34 34 36 38 39 39 38 37 36 38 41 32 33 24 21 16 20 32 33 3 10 12 27 11 26 32 33 29 32 35 40 43 35 24 25 45 26 40 26 22 26 12 14 17 24
41 41 40 39 40 38 43 36 35 32 28 30 25 15 15 13 7 23 22 28 27 13 8 12 14 14 22 32 33 32 33 19 37 41 38 24 20 22 30 29 31 19 17 18 6 14 4
42 44 47 44 44 43 43 35 29 26 21 15 20 17 14 11 22 29 25 34 12 19 18 11 7 18 20 22 31 30 28 24 26 45 42 33 11 19 34 42 31 31 28 27 15 25 15
46 47 49 51 51 45 37 30 23 20 15 15 19 28 12 16 14 22 27 22 15 23 16 7 15 16 10 15 14 26 21 12 6 28 22 30 15 22 28 11 14 23 23 15 22 5 22
53 53 52 50 48 37 30 26 20 20 11 7 14 9 27 28 37 22 23 24 28 21 22 15 17 15 21 14 16 15 17 6 11 25 6 3 22 29 15 28 27 30 34 26 17 16 22
57 56 52 48 43 34 29 28 24 21 11 6 15 7 10 9 26 25 24 21 23 18 21 14 17 32 15 23 24 14 20 13 13 9 10 12 24 24 36 30 29 43 37 34 32 30 24
52 52 50 45 41 37 27 31 28 22 13 9 15 10 7 25 10 13 14 25 21 9 8 17 21 18 19 17 28 23 24 25 11 12 21 13 16 31 34 34 26 21 38 39 33 24 12
45 47 46 43 43 43 44 40 33 26 15 11 8 16 13 8 21 19 23 25 14 4 17 19 7 7 18 12 2 9 11 19 20 17 18 18 22 25 32 26 27 28 23 39 25 18 20
39 40 40 42 44 46 47 45 38 30 26 13 12 12 19 21 16 18 4 6 17 15 16 8 12 18 6 18 13 20 13 20 6 5 9 17 24 20 26 22 31 5 18 11 22 17 7
38 36 35 37 43 45 45 48 45 38 31 24 13 12 19 19 17 6 14 18 15 22 20 19 11 5 13 15 11 15 22 32 7 6 1 9 15 15 13 5 11 11 4 9 11 12 10
40 38 34 32 36 42 43 49 47 40 40 28 15 13 14 22 9 10 8 15 19 12 9 20 5 9 6 9 17 25 17 34 11 8 5 4 12 8 14 12 3 15 20 14 9 12 7
40 37 34 30 30 35 42 47 50 43 39 29 14 20 10 24 26 7 14 17 4 14 18 7 13 10 10 13 23 21 23 25 15 14 31 9 8 15 5 15 20 23 23 13 8 6 6
40 41 36 30 27 27 40 42 44 43 45 31 17 22 14 26 22 8 12 14 10 8 16 28 14 10 16 16 23 12 9 15 20 22 29 26 19 16 11 13 9 1 13 11 11 9 5
37 39 38 33 29 25 33 36 39 34 48 33 20 15 15 20 22 15 22 22 16 10 14 15 3 5 15 10 4 9 18 7 9 9 2 5 9 6 12 7 12 11 19 15 9 5 7
Wind_Direction_850mb
12 5 5 4 2 355 346 344 343 342 340 339 337 338 338 334 330 328 327 324 322 319 317 317 316 323 257 232 64 187 192 181 177 181 194 196 204 212 220 201 193 245 158 187 158 177 240
5 3 1 359 356 354 350 346 343 342 340 339 338 338 338 334 329 326 325 323 323 319 315 314 313 309 247 249 134 207 180 187 178 182 196 205 206 216 246 197 209 127 168 169 181 174 201
345 353 355 357 356 353 351 348 347 345 343 342 341 341 338 334 329 325 324 324 325 319 313 311 319 301 259 290 167 171 177 189 183 192 212 215 252 216 236 197 211 182 192 187 187 178 145
329 346 348 349 350 349 347 347 346 347 345 344 343 341 339 335 330 327 325 324 322 314 311 296 330 294 269 183 186 189 189 193 199 205 236 196 213 234 239 172 203 203 227 198 165 164 156
287 318 333 341 343 344 344 344 345 344 344 343 342 341 341 337 333 331 328 325 319 304 309 283 341 233 236 198 194 200 193 195 191 201 216 228 220 223 206 202 202 219 211 229 146 197 166
271 292 310 323 331 335 339 340 342 343 343 341 340 340 341 339 337 338 336 330 316 303 298 282 249 247 224 221 182 183 183 195 190 200 209 220 214 220 220 211 204 205 233 232 175 179 236
260 278 295 309 318 325 328 331 334 336 339 340 340 338 340 342 343 347 359 340 321 232 248 276 308 261 169 187 183 180 181 185 195 203 215 206 219 214 206 211 241 236 209 225 200 166 211
257 269 282 294 303 310 315 320 323 326 330 333 335 335 338 344 343 357 9 14 30 333 298 273 252 240 230 214 194 182 177 196 201 209 215 191 228 221 237 203 235 273 208 205 124 169 241
258 268 278 288 295 300 302 304 307 314 318 323 327 331 337 345 354 1 333 334 336 328 268 284 220 226 214 210 226 183 188 207 201 224 211 235 211 233 244 211 208 232 237 172 171 195 230
258 266 276 284 290 294 297 299 300 301 304 312 317 324 335 340 335 330 313 318 326 318 272 159 195 213 191 194 225 213 196 211 233 233 236 227 249 195 210 215 211 212 233 212 208 184 211
259 266 274 280 285 288 293 298 302 301 298 299 305 314 323 336 329 333 306 315 317 297 279 101 125 134 185 200 135 197 198 216 232 211 229 224 236 197 208 205 204 252 178 236 213 198 198
260 264 269 274 279 286 291 297 302 305 303 296 293 304 309 332 320 304 309 306 310 235 243 87 151 185 182 211 184 157 188 215 240 268 233 249 211 202 215 212 206 169 184 204 212 219 235
255 259 263 268 275 283 290 297 303 307 309 305 291 290 296 302 295 302 310 298 241 241 80 236 177 210 200 197 181 177 185 199 225 218 232 228 212 217 237 186 172 204 179 193 207 220 232
249 252 258 264 272 279 285 292 301 309 310 308 301 288 288 291 284 291 298 244 254 278 280 30 285 289 253 209 206 175 198 199 223 237 201 214 205 205 201 202 185 198 196 230 187 211 225
245 249 254 261 267 273 278 287 297 306 309 309 309 301 276 271 258 268 256 230 229 217 283 324 288 251 214 241 220 188 191 201 227 239 260 228 224 193 194 216 194 212 225 246 302 260 268
244 252 258 266 273 276 272 279 289 301 305 311 316 306 265 233 252 228 238 246 269 116 326 268 286 333 292 205 210 218 192 199 198 227 236 292 276 173 196 212 239 274 207 225 244 276 248
243 250 256 260 267 274 285 282 286 293 300 310 318 269 181 198 221 221 235 231 236 171 252 262 288 299 321 294 202 223 230 188 197 207 227 259 273 208 174 211 204 208 215 229 311 288 312
246 250 254 257 261 269 273 285 285 284 298 330 286 250 183 189 227 228 238 232 348 271 205 265 307 283 284 314 305 228 208 234 197 208 208 224 278 225 196 214 231 223 220 197 245 218 274
250 251 254 260 268 265 262 261 274 274 299 319 261 263 229 209 240 232 223 252 237 240 211 242 258 237 315 303 315 274 221 89 158 234 204 220 239 231 176 200 223 265 210 230 210 197 206
251 250 251 254 261 250 239 242 250 264 278 311 275 244 208 217 252 294 284 218 228 218 255 231 251 270 269 270 279 269 252 155 213 225 207 351 237 249 224 217 200 221 238 236 195 232 244
246 246 247 249 245 236 225 231 240 254 247 299 238 252 1 187 224 222 254 284 223 210 204 199 238 245 246 243 279 280 277 141 211 201 232 222 235 250 256 265 272 199 213 210 216 222 255
236 239 240 236 232 222 217 222 232 238 226 255 293 300 309 273 298 254 232 245 251 221 240 216 232 221 206 243 253 299 347 356 159 185 207 216 236 234 243 250 267 202 223 208 211 232 266
231 231 231 226 226 220 215 216 229 230 206 257 257 271 273 259 223 242 233 223 239 288 246 273 294 292 260 237 268 296 321 291 298 295 207 202 229 218 224 223 242 247 227 207 234 239 229
223 228 227 221 219 220 218 216 218 216 206 229 317 286 269 257 237 236 330 235 245 237 296 312 261 250 21 318 269 248 286 297 268 313 294 221 224 218 230 199 223 163 351 240 235 197 204
217 222 225 222 216 218 216 214 216 219 211 217 252 273 280 270 281 235 235 244 261 246 233 254 277 292 309 269 213 193 238 280 215 54 60 253 218 224 233 219 140 120 146 175 203 186 173
216 220 220 222 216 213 212 212 215 220 207 216 238 235 258 282 273 357 292 256 269 239 210 227 196 303 276 252 231 207 176 240 241 291 120 45 287 272 224 269 294 348 29 7 102 187 97
209 215 216 215 216 211 208 208 212 212 199 206 226 222 252 263 265 303 270 328 9 294 279 139 356 266 228 232 234 225 227 205 191 179 282 196 326 291 231 274 86 169 253 289 227 41 4
211 212 211 211 212 216 204 206 209 204 195 205 217 219 228 274 265 280 285 309 311 300 308 11 269 204 244 235 239 219 229 222 210 195 233 263 240 257 265 253 227 358 184 273 73 82 37
208 207 205 205 208 208 201 197 193 184 192 201 211 219 231 249 281 296 263 254 255 294 315 305 345 40 357 285 234 120 269 138 241 171 136 219 357 16 360 73 87 43 71 92 85 77 68